TimeCST,TemperatureF,Dew PointF,Humidity,Sea Level PressureIn,VisibilityMPH,Wind Direction,Wind SpeedMPH,Gust SpeedMPH,PrecipitationIn,Events,Conditions,WindDirDegrees,DateUTC
12:13 AM,10.4,5.0,79,29.86,4.0,SW,12.7,-,N/A,Snow,Light Snow,220,2014-02-12 06:13:00
12:33 AM,10.4,6.8,85,29.86,3.0,SW,11.5,16.1,N/A,Snow,Light Snow,230,2014-02-12 06:33:00
12:52 AM,10.4,6.8,85,29.87,4.0,SW,9.2,-,N/A,Snow,Light Snow,220,2014-02-12 06:52:00
1:13 AM,10.4,6.8,85,29.87,3.0,SW,10.4,-,N/A,Snow,Light Snow,220,2014-02-12 07:13:00
1:33 AM,10.4,6.8,85,29.88,4.0,SW,8.1,-,N/A,Snow,Light Snow,220,2014-02-12 07:33:00
1:52 AM,10.4,6.8,85,29.88,3.0,SW,8.1,-,N/A,Snow,Light Snow,230,2014-02-12 07:52:00
2:13 AM,10.4,6.8,85,29.89,4.0,SW,6.9,-,N/A,Snow,Light Snow,220,2014-02-12 08:13:00
2:33 AM,10.4,6.8,85,29.89,4.0,SW,6.9,-,N/A,Snow,Light Snow,220,2014-02-12 08:33:00
2:52 AM,10.4,6.8,85,29.89,4.0,SW,8.1,-,N/A,Snow,Light Snow,230,2014-02-12 08:52:00
3:13 AM,10.4,6.8,85,29.89,4.0,SW,10.4,-,N/A,Snow,Light Snow,230,2014-02-12 09:13:00
3:32 AM,10.4,6.8,85,29.89,4.0,SW,6.9,-,N/A,Snow,Light Snow,230,2014-02-12 09:32:00
3:53 AM,10.4,6.8,85,29.89,5.0,SW,9.2,-,N/A,Snow,Light Snow,230,2014-02-12 09:53:00
4:13 AM,10.4,6.8,85,29.90,5.0,WSW,5.8,-,N/A,Snow,Light Snow,240,2014-02-12 10:13:00
4:32 AM,10.4,6.8,85,29.91,4.0,WSW,4.6,-,N/A,Snow,Light Snow,250,2014-02-12 10:32:00
4:53 AM,10.4,6.8,85,29.92,3.0,WSW,5.8,-,N/A,Snow,Light Snow,240,2014-02-12 10:53:00
5:13 AM,10.4,6.8,85,29.93,3.0,West,4.6,-,N/A,Snow,Light Snow,270,2014-02-12 11:13:00
5:32 AM,10.4,6.8,85,29.93,5.0,WNW,12.7,21.9,N/A,Snow,Light Snow,290,2014-02-12 11:32:00
5:53 AM,8.6,3.2,79,29.95,7.0,WNW,6.9,-,N/A,Snow,Light Snow,290,2014-02-12 11:53:00
6:12 AM,6.8,1.4,79,29.96,10.0,West,8.1,-,N/A,,Clear,280,2014-02-12 12:12:00
6:33 AM,3.2,-0.4,85,29.96,10.0,West,12.7,-,N/A,,Clear,280,2014-02-12 12:33:00
6:53 AM,1.4,-2.2,85,29.97,10.0,WNW,9.2,18.4,N/A,,Clear,300,2014-02-12 12:53:00
7:12 AM,-0.4,-4.0,85,29.97,10.0,WNW,5.8,-,N/A,,Clear,290,2014-02-12 13:12:00
7:33 AM,-0.4,-5.8,78,29.98,10.0,West,8.1,-,N/A,Snow,Light Snow,270,2014-02-12 13:33:00
7:53 AM,-2.2,-5.8,85,29.98,10.0,West,6.9,-,N/A,,Clear,280,2014-02-12 13:53:00
8:12 AM,-2.2,-5.8,85,29.99,10.0,West,4.6,-,N/A,,Clear,280,2014-02-12 14:12:00
8:33 AM,-0.4,-7.6,72,29.99,10.0,West,3.5,-,N/A,,Clear,260,2014-02-12 14:33:00
8:53 AM,-0.4,-7.6,72,30.00,10.0,West,9.2,-,N/A,,Scattered Clouds,280,2014-02-12 14:53:00
9:12 AM,-0.4,-7.6,72,29.99,10.0,WNW,6.9,-,N/A,,Clear,290,2014-02-12 15:12:00
9:32 AM,1.4,-7.6,66,29.99,10.0,West,6.9,-,N/A,,Clear,270,2014-02-12 15:32:00
9:53 AM,1.4,-5.8,72,29.99,10.0,WNW,4.6,-,N/A,,Clear,300,2014-02-12 15:53:00
10:13 AM,3.2,-5.8,66,30.00,10.0,West,8.1,-,N/A,,Clear,280,2014-02-12 16:13:00
10:33 AM,3.2,-7.6,61,30.00,10.0,WNW,10.4,-,N/A,,Clear,300,2014-02-12 16:33:00
10:53 AM,3.2,-7.6,61,29.99,10.0,NW,5.8,-,N/A,,Clear,310,2014-02-12 16:53:00
11:12 AM,3.2,-7.6,61,29.99,10.0,NW,6.9,-,N/A,,Clear,310,2014-02-12 17:12:00
11:33 AM,5.0,-5.8,61,29.99,10.0,West,6.9,-,N/A,,Clear,270,2014-02-12 17:33:00
11:53 AM,6.8,-7.6,52,29.97,10.0,NW,8.1,-,N/A,,Clear,320,2014-02-12 17:53:00
12:12 PM,6.8,-5.8,56,29.97,10.0,West,5.8,-,N/A,,Clear,280,2014-02-12 18:12:00
12:33 PM,8.6,-7.6,48,29.95,10.0,WNW,5.8,-,N/A,,Clear,290,2014-02-12 18:33:00
12:53 PM,8.6,-7.6,48,29.95,10.0,Calm,Calm,-,N/A,,Clear,0,2014-02-12 18:53:00
1:12 PM,8.6,-7.6,48,29.94,10.0,WNW,6.9,-,N/A,,Clear,300,2014-02-12 19:12:00
1:33 PM,8.6,-7.6,48,29.93,10.0,West,4.6,-,N/A,,Clear,270,2014-02-12 19:33:00
1:53 PM,8.6,-7.6,48,29.93,10.0,West,5.8,-,N/A,,Clear,270,2014-02-12 19:53:00
2:13 PM,10.4,-7.6,44,29.92,10.0,Calm,Calm,-,N/A,,Clear,0,2014-02-12 20:13:00
2:33 PM,10.4,-7.6,44,29.91,10.0,Calm,Calm,-,N/A,,Clear,0,2014-02-12 20:33:00
2:53 PM,10.4,-7.6,44,29.90,10.0,West,4.6,-,N/A,,Clear,260,2014-02-12 20:53:00
3:13 PM,10.4,-7.6,44,29.90,10.0,SW,4.6,-,N/A,,Clear,220,2014-02-12 21:13:00
3:32 PM,10.4,-7.6,44,29.90,10.0,WSW,3.5,-,N/A,,Clear,240,2014-02-12 21:32:00
3:53 PM,10.4,-7.6,44,29.90,10.0,WSW,5.8,-,N/A,,Clear,250,2014-02-12 21:53:00
4:13 PM,8.6,-7.6,48,29.90,10.0,WSW,8.1,-,N/A,,Clear,240,2014-02-12 22:13:00
4:32 PM,8.6,-7.6,48,29.89,10.0,WSW,4.6,-,N/A,,Clear,240,2014-02-12 22:32:00
4:53 PM,8.6,-7.6,48,29.90,10.0,Calm,Calm,-,N/A,,Clear,0,2014-02-12 22:53:00
5:13 PM,6.8,-7.6,52,29.90,10.0,Calm,Calm,-,N/A,,Clear,0,2014-02-12 23:13:00
5:32 PM,6.8,-7.6,52,29.90,10.0,Calm,Calm,-,N/A,,Clear,0,2014-02-12 23:32:00
5:53 PM,6.8,-7.6,52,29.90,10.0,Calm,Calm,-,N/A,,Clear,0,2014-02-12 23:53:00
6:13 PM,6.8,-7.6,52,29.90,10.0,Calm,Calm,-,N/A,,Scattered Clouds,0,2014-02-13 00:13:00
6:32 PM,3.2,-5.8,66,29.90,10.0,Calm,Calm,-,N/A,,Scattered Clouds,0,2014-02-13 00:32:00
6:53 PM,3.2,-5.8,66,29.89,10.0,Calm,Calm,-,N/A,,Clear,0,2014-02-13 00:53:00
7:13 PM,3.2,-5.8,66,29.89,10.0,Calm,Calm,-,N/A,,Clear,0,2014-02-13 01:13:00
7:32 PM,3.2,-5.8,66,29.88,10.0,Calm,Calm,-,N/A,,Clear,0,2014-02-13 01:32:00
7:53 PM,3.2,-4.0,72,29.87,10.0,Calm,Calm,-,N/A,,Clear,0,2014-02-13 01:53:00
8:13 PM,3.2,-4.0,72,29.86,10.0,Calm,Calm,-,N/A,,Clear,0,2014-02-13 02:13:00
8:32 PM,5.0,-5.8,61,29.85,10.0,ESE,3.5,-,N/A,,Clear,120,2014-02-13 02:32:00
8:53 PM,3.2,-5.8,66,29.85,10.0,Calm,Calm,-,N/A,,Clear,0,2014-02-13 02:53:00
9:13 PM,5.0,-5.8,61,29.84,10.0,Calm,Calm,-,N/A,,Clear,0,2014-02-13 03:13:00
9:32 PM,5.0,-5.8,61,29.82,10.0,Calm,Calm,-,N/A,,Clear,0,2014-02-13 03:32:00
9:53 PM,5.0,-5.8,61,29.81,10.0,Calm,Calm,-,N/A,,Clear,0,2014-02-13 03:53:00
10:13 PM,5.0,-4.0,66,29.80,10.0,ESE,3.5,-,N/A,,Clear,120,2014-02-13 04:13:00
10:32 PM,6.8,-5.8,56,29.79,10.0,East,3.5,-,N/A,,Scattered Clouds,100,2014-02-13 04:32:00
10:53 PM,6.8,-5.8,56,29.78,10.0,East,3.5,-,N/A,,Mostly Cloudy,100,2014-02-13 04:53:00
11:13 PM,6.8,-5.8,56,29.77,10.0,ESE,4.6,-,N/A,,Overcast,110,2014-02-13 05:13:00
11:32 PM,6.8,-4.0,61,29.75,10.0,ESE,4.6,-,N/A,,Scattered Clouds,110,2014-02-13 05:32:00
11:53 PM,6.8,-4.0,61,29.75,10.0,ESE,4.6,-,N/A,,Clear,120,2014-02-13 05:53:00